DW9837 Weather Reports


Display with metric or nautical units.
time (UTC)temp
F
wind
direction
speed
MPH
gust
MPH
rain 1hr
in
rain 24hr
in
rain mn
in
humidity
%
barometer
mb
20260509174513 57 156 1.0 6.0 0.00 0.01 0.01 78 1012.1
20260509173008 56 180 3.0 7.0 0.00 0.01 0.01 79 1012.2
20260509171506 56 87 1.0 6.0 0.00 0.01 0.01 80 1012.5
20260509170012 55 178 2.0 6.0 0.00 0.01 0.01 80 1012.6
20260509164504 55 170 3.0 6.0 0.00 0.01 0.01 82 1012.9
20260509163003 54 171 2.0 6.0 0.00 0.01 0.01 81 1013.1
20260509161500 55 174 2.0 5.0 0.00 0.01 0.01 81 1013.2
20260509160001 55 182 2.0 6.0 0.00 0.01 0.01 80 1013.3
20260509154617 55 132 1.0 5.0 0.00 0.01 0.01 80 1013.4
20260509153105 55 176 1.0 4.0 0.00 0.01 0.01 81 1013.4
20260509151558 55 213 2.0 6.0 0.00 0.01 0.01 80 1013.5
20260509150058 55 105 2.0 6.0 0.00 0.01 0.01 80 1013.4
20260509144601 55 184 2.0 6.0 0.00 0.01 0.01 78 1013.4
20260509143057 55 192 1.0 4.0 0.00 0.01 0.01 79 1013.3
20260509141556 55 182 2.0 6.0 0.00 0.01 0.01 80 1013.4
20260509140104 55 184 2.0 8.0 0.00 0.01 0.01 80 1013.5
20260509134556 55 238 3.0 7.0 0.00 0.01 0.01 78 1013.6
20260509133054 56 156 1.0 6.0 0.00 0.01 0.01 78 1013.4
20260509131551 55 108 1.0 5.0 0.00 0.01 0.01 80 1013.1
20260509130049 54 104 1.0 4.0 0.00 0.01 0.01 81 1013.7
20260509124546 54 151 0.0 3.0 0.00 0.01 0.01 84 1014.1
20260509123043 52 96 0.0 2.0 0.00 0.01 0.01 87 1014.1
20260509121544 51 137 1.0 4.0 0.00 0.01 0.01 87 1014.3
20260509120048 51 151 2.0 6.0 0.00 0.01 0.01 86 1014.3
20260509114538 51 106 0.0 4.0 0.00 0.01 0.01 87 1013.9
20260509113034 51 78 0.0 2.0 0.00 0.01 0.01 88 1013.8
20260509111532 50 16 0.0 3.0 0.00 0.01 0.01 89 1013.8
20260509110035 50 100 0.0 2.0 0.00 0.01 0.01 90 1013.7
20260509104533 49 281 0.0 3.0 0.00 0.01 0.01 90 1013.9
20260509103031 49 125 0.0 3.0 0.00 0.01 0.01 90 1013.7
20260509101539 49 106 0.0 2.0 0.00 0.01 0.01 90 1013.7
20260509100029 49 133 0.0 2.0 0.01 0.01 0.01 89 1013.9
20260509094530 50 54 0.0 1.0 0.01 0.01 0.01 89 1013.8
20260509093028 50 97 0.0 1.0 0.01 0.01 0.01 89 1013.7
20260509091532 50 96 0.0 1.0 0.01 0.01 0.01 87 1013.7
20260509090027 50 192 0.0 1.0 0.00 0.00 0.00 86 1013.7
20260509084530 50 167 1.0 2.0 0.00 0.00 0.00 86 1013.4
20260509083026 50 123 0.0 1.0 0.00 0.00 0.00 87 1013.5
20260509081525 50 152 0.0 3.0 0.00 0.00 0.00 87 1013.5
20260509080023 49 104 0.0 6.0 0.00 0.00 0.00 88 1013.5
20260509074523 49 201 2.0 9.0 0.00 0.00 0.00 88 1013.6
20260509073029 49 194 0.0 2.0 0.00 0.00 0.00 85 1013.4
20260509071518 49 90 0.0 1.0 0.00 0.00 0.00 84 1013.4
20260509070017 49 90 0.0 1.0 0.00 0.00 0.00 84 1013.3
20260509064516 49 90 0.0 1.0 0.00 0.00 0.00 84 1013.4
20260509063019 49 90 0.0 1.0 0.00 0.00 0.00 84 1013.5
20260509061513 49 90 0.0 0.0 0.00 0.00 0.00 84 1013.8
20260509060022 49 90 0.0 1.0 0.00 0.00 0.00 84 1013.7
20260509054509 49 90 0.0 1.0 0.00 0.00 0.00 84 1013.7
20260509053012 49 90 0.0 0.0 0.00 0.00 0.00 83 1014.0
20260509051508 50 262 0.0 0.0 0.00 0.00 0.00 83 1013.9
20260509050006 50 262 0.0 0.0 0.00 0.00 0.00 83 1013.8
20260509044504 50 262 0.0 0.0 0.00 0.00 0.00 84 1014.1
20260509043003 50 262 0.0 1.0 0.00 0.00 0.00 83 1014.1
20260509041502 50 262 0.0 0.0 0.00 0.00 0.00 83 1014.0
20260509040126 50 262 0.0 0.0 0.00 0.00 0.00 82 1014.0
20260509034601 50 262 0.0 1.0 0.00 0.00 0.00 82 1013.9
20260509033056 49 262 0.0 0.0 0.00 0.00 0.00 83 1013.7
20260509031559 49 262 0.0 1.0 0.00 0.00 0.00 83 1013.6
20260509030057 49 262 0.0 1.0 0.00 0.00 0.00 81 1013.3
20260509024556 49 284 0.0 1.0 0.00 0.00 0.00 83 1013.4
20260509023053 48 284 0.0 1.0 0.00 0.00 0.00 83 1013.5
20260509021552 49 284 0.0 1.0 0.00 0.00 0.00 81 1013.4
20260509020051 49 284 0.0 1.0 0.00 0.00 0.00 81 1013.3
20260509014549 49 284 0.0 1.0 0.00 0.00 0.00 78 1013.1
20260509013050 50 284 0.0 1.0 0.00 0.00 0.00 75 1012.9
20260509011556 51 284 0.0 1.0 0.00 0.00 0.00 73 1012.7
20260509010047 52 284 0.0 1.0 0.00 0.00 0.00 72 1012.3
20260509004553 52 294 0.0 1.0 0.00 0.00 0.00 72 1012.1
20260509003040 52 292 0.0 1.0 0.00 0.00 0.00 71 1011.9
20260509001539 53 283 0.0 3.0 0.00 0.00 0.00 70 1011.8
20260509000037 53 297 2.0 5.0 0.00 0.00 0.00 68 1011.7
20260508234536 54 176 0.0 6.0 0.00 0.00 0.00 64 1011.3
20260508233036 56 316 1.0 5.0 0.00 0.00 0.00 56 1011.1
20260508231537 57 345 0.0 3.0 0.00 0.00 0.00 49 1010.6
20260508230037 58 265 0.0 5.0 0.00 0.00 0.00 53 1010.5
20260508224534 58 83 1.0 6.0 0.00 0.00 0.00 50 1010.5
20260508223041 59 292 0.0 6.0 0.00 0.00 0.00 50 1010.5
20260508221533 59 116 1.0 5.0 0.00 0.00 0.00 48 1010.5
20260508220034 59 300 1.0 4.0 0.00 0.00 0.00 51 1010.5
20260508214538 59 6 2.0 7.0 0.00 0.00 0.00 53 1010.4
20260508213034 59 136 1.0 4.0 0.00 0.00 0.00 53 1010.5
20260508211532 58 329 1.0 5.0 0.00 0.00 0.00 55 1010.5
20260508210029 57 272 2.0 5.0 0.00 0.00 0.00 55 1010.5
20260508204533 55 272 1.0 6.0 0.00 0.00 0.00 62 1010.5
20260508203027 54 304 1.0 11.0 0.00 0.00 0.00 72 1010.7
20260508201526 53 258 5.0 14.0 0.00 0.00 0.00 68 1010.9
20260508200024 58 267 3.0 13.0 0.00 0.00 0.00 49 1010.2
20260508194524 61 265 2.0 8.0 0.00 0.00 0.00 43 1009.9
20260508193022 62 296 4.0 11.0 0.00 0.00 0.00 41 1009.6
20260508191522 60 291 4.0 9.0 0.00 0.00 0.00 43 1009.7
20260508190026 59 276 6.0 13.0 0.00 0.00 0.00 44 1010.0
20260508184520 58 253 4.0 12.0 0.00 0.00 0.00 47 1009.7
20260508183019 60 294 2.0 10.0 0.00 0.00 0.00 47 1009.5
20260508181518 60 273 4.0 12.0 0.00 0.00 0.00 44 1009.9
20260508180020 60 337 3.0 12.0 0.00 0.00 0.00 45 1009.9